QPF
0.00 0.00 0.00 0.00 0.00 0.00 0.00 0.00 0.01 0.01 0.00 0.00 0.01 0.02 0.02 0.02 0.02 0.02 0.02 0.02 0.02 0.01 0.00 0.00 0.00 0.00 0.00 0.00 0.00 0.00 0.00 0.00 0.00 0.00 0.00 0.00 0.00 0.00 0.00 0.00 0.00 0.00 0.00 0.00
0.00 0.00 0.00 0.00 0.00 0.00 0.00 0.00 0.00 0.00 0.00 0.00 0.00 0.01 0.01 0.01 0.02 0.02 0.02 0.01 0.00 0.00 0.00 0.00 0.00 0.00 0.00 0.00 0.00 0.00 0.00 0.00 0.00 0.00 0.00 0.00 0.00 0.00 0.00 0.00 0.00 0.00 0.00 0.00
0.00 0.00 0.00 0.01 0.00 0.00 0.00 0.00 0.00 0.01 0.00 0.00 0.01 0.02 0.02 0.01 0.01 0.01 0.01 0.00 0.00 0.00 0.00 0.00 0.00 0.00 0.00 0.00 0.00 0.00 0.00 0.00 0.00 0.00 0.00 0.00 0.00 0.00 0.00 0.00 0.00 0.00 0.00 0.00
0.00 0.00 0.01 0.01 0.00 0.00 0.00 0.00 0.01 0.01 0.01 0.01 0.02 0.02 0.02 0.00 0.00 0.00 0.00 0.00 0.00 0.00 0.00 0.00 0.00 0.00 0.00 0.00 0.00 0.00 0.00 0.00 0.00 0.00 0.00 0.00 0.00 0.00 0.00 0.00 0.00 0.00 0.00 0.00
0.00 0.00 0.00 0.00 0.00 0.00 0.00 0.01 0.00 0.00 0.01 0.01 0.01 0.00 0.01 0.00 0.00 0.00 0.00 0.00 0.00 0.00 0.00 0.00 0.00 0.00 0.00 0.00 0.00 0.00 0.00 0.00 0.00 0.00 0.00 0.00 0.00 0.00 0.00 0.00 0.00 0.00 0.00 0.00
0.00 0.00 0.00 0.00 0.00 0.00 0.00 0.02 0.00 0.00 0.00 0.00 0.00 0.00 0.02 0.00 0.00 0.00 0.00 0.00 0.00 0.00 0.00 0.00 0.00 0.00 0.00 0.00 0.00 0.00 0.00 0.00 0.00 0.00 0.00 0.00 0.00 0.00 0.00 0.00 0.00 0.00 0.00 0.00
0.00 0.00 0.00 0.00 0.00 0.00 0.01 0.02 0.00 0.00 0.00 0.00 0.00 0.00 0.00 0.00 0.00 0.00 0.00 0.00 0.00 0.00 0.00 0.00 0.00 0.00 0.00 0.00 0.00 0.00 0.00 0.00 0.00 0.00 0.00 0.00 0.00 0.00 0.00 0.00 0.00 0.00 0.00 0.00
0.00 0.00 0.00 0.00 0.00 0.01 0.01 0.00 0.00 0.00 0.00 0.00 0.00 0.00 0.00 0.00 0.00 0.00 0.00 0.00 0.00 0.00 0.00 0.00 0.00 0.00 0.00 0.00 0.00 0.00 0.00 0.00 0.00 0.00 0.00 0.00 0.00 0.00 0.00 0.00 0.00 0.00 0.00 0.00
0.00 0.00 0.00 0.00 0.01 0.01 0.01 0.00 0.00 0.00 0.00 0.00 0.00 0.00 0.00 0.00 0.00 0.00 0.00 0.00 0.00 0.00 0.00 0.00 0.00 0.00 0.00 0.00 0.00 0.00 0.00 0.00 0.00 0.00 0.00 0.00 0.00 0.00 0.00 0.00 0.00 0.00 0.00 0.00
0.00 0.01 0.00 0.00 0.02 0.02 0.00 0.00 0.00 0.00 0.00 0.00 0.00 0.00 0.00 0.00 0.00 0.00 0.00 0.00 0.00 0.00 0.00 0.00 0.00 0.00 0.00 0.00 0.00 0.00 0.00 0.00 0.00 0.00 0.00 0.00 0.00 0.00 0.00 0.00 0.00 0.00 0.00 0.00
0.00 0.00 0.00 0.00 0.00 0.00 0.00 0.00 0.00 0.00 0.00 0.00 0.00 0.00 0.00 0.00 0.00 0.00 0.00 0.00 0.00 0.01 0.00 0.00 0.00 0.00 0.00 0.00 0.00 0.00 0.00 0.00 0.00 0.00 0.00 0.00 0.00 0.00 0.00 0.00 0.00 0.00 0.00 0.00
0.00 0.00 0.02 0.00 0.00 0.00 0.00 0.00 0.00 0.00 0.00 0.00 0.00 0.00 0.00 0.00 0.00 0.00 0.00 0.00 0.01 0.00 0.00 0.00 0.00 0.00 0.00 0.00 0.00 0.00 0.00 0.00 0.00 0.00 0.00 0.00 0.00 0.00 0.00 0.00 0.00 0.00 0.00 0.00
0.00 0.00 0.00 0.00 0.00 0.00 0.00 0.00 0.00 0.00 0.00 0.00 0.00 0.00 0.00 0.00 0.00 0.00 0.01 0.01 0.00 0.01 0.01 0.00 0.00 0.00 0.00 0.00 0.00 0.00 0.00 0.00 0.00 0.00 0.00 0.00 0.00 0.00 0.00 0.00 0.00 0.00 0.00 0.00
0.00 0.00 0.00 0.00 0.00 0.00 0.00 0.00 0.00 0.00 0.00 0.00 0.00 0.00 0.00 0.00 0.00 0.00 0.00 0.00 0.00 0.00 0.00 0.00 0.00 0.00 0.00 0.00 0.00 0.00 0.00 0.00 0.00 0.00 0.00 0.00 0.00 0.00 0.00 0.00 0.00 0.00 0.00 0.00
0.00 0.00 0.00 0.00 0.00 0.00 0.00 0.00 0.00 0.00 0.00 0.00 0.00 0.00 0.00 0.00 0.00 0.00 0.00 0.00 0.00 0.00 0.00 0.00 0.00 0.00 0.00 0.00 0.00 0.00 0.00 0.00 0.00 0.00 0.00 0.00 0.00 0.00 0.00 0.00 0.00 0.00 0.00 0.00
0.00 0.00 0.00 0.00 0.00 0.00 0.00 0.00 0.00 0.00 0.00 0.00 0.00 0.00 0.00 0.00 0.00 0.00 0.00 0.01 0.00 0.00 0.00 0.00 0.00 0.00 0.00 0.00 0.00 0.00 0.00 0.00 0.00 0.00 0.00 0.00 0.00 0.00 0.00 0.00 0.00 0.00 0.00 0.00
0.00 0.00 0.00 0.00 0.00 0.00 0.00 0.00 0.00 0.00 0.00 0.00 0.00 0.00 0.00 0.00 0.00 0.00 0.01 0.01 0.00 0.01 0.01 0.00 0.00 0.00 0.00 0.00 0.00 0.00 0.00 0.00 0.00 0.01 0.01 0.00 0.00 0.00 0.00 0.00 0.00 0.00 0.00 0.00
0.00 0.00 0.00 0.00 0.00 0.00 0.00 0.00 0.00 0.00 0.00 0.00 0.00 0.00 0.00 0.00 0.00 0.00 0.01 0.01 0.01 0.00 0.01 0.00 0.00 0.00 0.00 0.00 0.00 0.00 0.00 0.00 0.00 0.00 0.00 0.00 0.00 0.00 0.00 0.00 0.00 0.00 0.00 0.00
0.00 0.00 0.00 0.00 0.00 0.00 0.00 0.00 0.00 0.00 0.00 0.00 0.00 0.01 0.01 0.00 0.00 0.00 0.00 0.01 0.01 0.01 0.01 0.00 0.00 0.00 0.00 0.00 0.00 0.00 0.00 0.00 0.00 0.00 0.00 0.00 0.00 0.00 0.00 0.00 0.00 0.00 0.00 0.00
0.00 0.00 0.00 0.00 0.00 0.00 0.00 0.00 0.00 0.00 0.00 0.00 0.00 0.00 0.00 0.00 0.00 0.00 0.00 0.01 0.01 0.01 0.01 0.01 0.01 0.01 0.00 0.00 0.01 0.02 0.00 0.00 0.00 0.01 0.00 0.00 0.00 0.00 0.00 0.00 0.00 0.00 0.00 0.00
0.00 0.00 0.00 0.00 0.00 0.00 0.00 0.00 0.00 0.00 0.00 0.00 0.00 0.01 0.01 0.00 0.00 0.00 0.00 0.00 0.00 0.02 0.02 0.01 0.01 0.01 0.01 0.00 0.01 0.03 0.02 0.01 0.00 0.00 0.00 0.00 0.00 0.00 0.00 0.00 0.00 0.00 0.00 0.00
0.00 0.00 0.00 0.00 0.00 0.00 0.00 0.00 0.00 0.00 0.00 0.00 0.00 0.00 0.00 0.00 0.00 0.00 0.00 0.01 0.01 0.02 0.01 0.00 0.01 0.01 0.04 0.05 0.02 0.01 0.00 0.00 0.01 0.01 0.00 0.00 0.00 0.00 0.00 0.00 0.00 0.00 0.00 0.00
0.00 0.00 0.00 0.00 0.00 0.00 0.00 0.00 0.00 0.00 0.00 0.00 0.00 0.00 0.00 0.00 0.01 0.00 0.00 0.00 0.04 0.01 0.00 0.03 0.07 0.03 0.02 0.01 0.00 0.01 0.02 0.01 0.01 0.00 0.00 0.00 0.00 0.00 0.00 0.00 0.00 0.00 0.00 0.00
0.00 0.00 0.00 0.00 0.00 0.00 0.00 0.00 0.00 0.00 0.00 0.00 0.00 0.00 0.00 0.01 0.00 0.00 0.00 0.00 0.02 0.00 0.00 0.01 0.03 0.00 0.00 0.00 0.00 0.00 0.00 0.00 0.00 0.00 0.00 0.00 0.00 0.00 0.00 0.00 0.00 0.00 0.00 0.00
0.00 0.00 0.00 0.00 0.00 0.00 0.00 0.00 0.00 0.00 0.00 0.00 0.00 0.00 0.00 0.00 0.01 0.01 0.00 0.00 0.00 0.00 0.00 0.00 0.01 0.01 0.00 0.00 0.00 0.00 0.00 0.00 0.00 0.00 0.00 0.00 0.00 0.00 0.00 0.00 0.00 0.00 0.00 0.00
0.00 0.00 0.00 0.00 0.00 0.00 0.00 0.00 0.00 0.00 0.00 0.00 0.00 0.00 0.00 0.00 0.00 0.01 0.00 0.00 0.00 0.00 0.00 0.00 0.00 0.00 0.00 0.00 0.00 0.00 0.00 0.00 0.00 0.00 0.00 0.00 0.00 0.00 0.00 0.00 0.00 0.00 0.00 0.00
0.00 0.00 0.00 0.00 0.00 0.00 0.00 0.00 0.00 0.00 0.00 0.01 0.00 0.00 0.00 0.00 0.00 0.00 0.00 0.00 0.00 0.00 0.00 0.00 0.00 0.00 0.00 0.00 0.00 0.00 0.00 0.00 0.00 0.00 0.00 0.00 0.00 0.00 0.00 0.00 0.00 0.00 0.00 0.00
MSLP
1022.83 1023.09 1023.25 1023.67 1023.95 1024.32 1024.56 1025.12 1024.67 1024.96 1024.80 1024.99 1024.74 1024.66 1024.78 1025.03 1025.38 1025.78 1026.16 1026.50 1026.82 1027.20 1027.51 1027.77 1027.98 1028.23 1028.38 1028.47 1028.42 1028.28 1028.07 1027.97 1027.88 1027.72 1027.59 1027.44 1027.25 1027.09 1026.95 1026.76 1026.85 1026.90 1026.62 1026.42
1022.89 1023.22 1023.39 1024.15 1024.65 1024.97 1025.43 1025.88 1025.53 1025.29 1025.19 1025.76 1025.61 1025.35 1025.43 1025.47 1025.57 1025.71 1025.98 1026.27 1026.60 1026.90 1027.21 1027.55 1027.86 1028.08 1028.38 1028.63 1028.72 1028.64 1028.56 1028.47 1028.43 1028.18 1028.08 1028.00 1027.86 1027.71 1027.46 1027.29 1027.29 1027.23 1027.09 1026.96
1022.74 1023.33 1023.49 1024.22 1025.72 1025.84 1026.43 1026.87 1026.95 1026.35 1026.33 1025.91 1025.74 1025.63 1025.51 1025.66 1025.79 1025.74 1025.73 1025.89 1026.11 1026.37 1026.75 1027.14 1027.58 1028.02 1028.28 1028.53 1028.69 1028.74 1028.68 1028.78 1028.75 1028.73 1028.62 1028.54 1028.38 1028.18 1027.98 1027.84 1027.70 1027.55 1027.43 1027.36
1023.06 1023.47 1023.85 1025.72 1026.12 1026.29 1026.88 1027.46 1027.52 1027.33 1026.96 1026.75 1026.46 1026.11 1025.87 1025.97 1025.99 1025.80 1025.67 1025.54 1025.57 1025.96 1026.39 1026.86 1027.36 1027.77 1028.16 1028.35 1028.42 1028.60 1028.64 1028.70 1028.83 1028.96 1028.94 1028.87 1028.78 1028.64 1028.42 1028.11 1027.94 1027.83 1027.77 1027.72
1023.70 1023.70 1025.27 1025.85 1026.48 1026.94 1027.15 1028.06 1028.43 1028.22 1027.82 1027.54 1026.98 1026.08 1025.96 1026.09 1026.11 1025.94 1025.69 1025.48 1025.49 1025.78 1026.15 1026.59 1027.11 1027.47 1027.88 1028.01 1028.14 1028.28 1028.38 1028.57 1028.75 1028.98 1029.07 1028.99 1028.92 1028.77 1028.61 1028.42 1028.20 1028.06 1027.98 1027.96
1024.40 1024.40 1024.97 1026.38 1026.86 1027.34 1027.71 1028.30 1029.26 1029.30 1029.05 1028.68 1027.89 1026.77 1026.43 1026.85 1026.78 1026.40 1026.10 1025.85 1025.80 1026.09 1026.31 1026.55 1026.74 1027.23 1027.50 1027.53 1027.63 1027.74 1027.87 1028.12 1028.43 1028.71 1028.91 1028.98 1028.88 1028.77 1028.56 1028.42 1028.23 1028.12 1028.01 1027.97
1025.47 1025.57 1026.53 1027.47 1027.62 1027.68 1028.90 1030.70 1030.61 1030.54 1030.38 1030.08 1029.74 1029.26 1028.20 1027.88 1027.33 1026.97 1026.38 1026.24 1026.07 1026.22 1026.16 1026.28 1026.48 1026.99 1027.15 1027.14 1027.14 1027.23 1027.58 1027.82 1028.00 1028.18 1028.39 1028.58 1028.62 1028.55 1028.45 1028.34 1028.15 1028.04 1027.92 1027.68
1027.15 1027.21 1027.91 1028.86 1028.28 1029.69 1031.74 1031.80 1032.04 1031.86 1031.67 1031.36 1031.04 1030.22 1029.57 1028.86 1028.12 1027.62 1027.06 1026.51 1026.42 1026.42 1026.11 1026.18 1026.38 1026.73 1026.82 1026.82 1026.87 1027.15 1027.44 1027.54 1027.65 1027.73 1027.85 1027.89 1028.09 1028.26 1028.27 1028.22 1028.09 1027.87 1027.59 1027.32
1030.23 1029.75 1030.38 1030.87 1031.33 1032.44 1033.01 1033.40 1033.16 1033.13 1033.02 1032.84 1032.14 1031.26 1030.48 1029.63 1029.00 1028.32 1027.69 1027.02 1026.58 1026.24 1026.02 1025.98 1026.04 1026.40 1026.50 1026.43 1026.67 1026.98 1027.17 1027.25 1027.30 1027.35 1027.42 1027.48 1027.55 1027.63 1027.65 1027.54 1027.51 1027.32 1027.02 1026.73
1031.61 1031.72 1031.83 1031.89 1032.56 1033.43 1034.07 1034.35 1034.42 1034.30 1034.05 1033.68 1032.95 1032.04 1031.09 1030.51 1029.72 1028.94 1028.21 1027.52 1026.92 1026.24 1025.80 1025.81 1025.84 1025.96 1026.27 1026.44 1026.59 1026.83 1026.91 1026.94 1026.97 1026.98 1026.93 1026.87 1026.86 1026.86 1026.77 1026.72 1026.69 1026.60 1026.45 1026.20
1032.85 1032.49 1032.58 1032.62 1032.71 1034.42 1034.87 1035.29 1035.28 1035.01 1034.70 1034.04 1033.30 1032.46 1031.87 1030.96 1030.05 1029.26 1028.54 1027.81 1027.04 1026.34 1025.94 1025.81 1025.80 1025.75 1026.05 1026.28 1026.50 1026.67 1026.71 1026.71 1026.67 1026.60 1026.50 1026.31 1026.17 1026.15 1026.07 1026.03 1026.15 1026.17 1026.00 1025.88
1034.96 1034.86 1035.35 1034.68 1034.92 1035.22 1035.58 1035.67 1035.58 1035.16 1034.46 1034.02 1033.55 1032.63 1031.87 1030.98 1030.20 1029.40 1028.53 1027.74 1027.06 1026.55 1026.24 1026.08 1026.05 1026.04 1026.05 1026.13 1026.40 1026.51 1026.46 1026.35 1026.24 1026.12 1025.99 1025.89 1025.79 1025.61 1025.48 1025.52 1025.48 1025.34 1025.13 1024.93
1036.81 1036.82 1036.86 1036.33 1036.05 1036.35 1036.50 1036.18 1035.75 1035.11 1034.68 1033.98 1033.25 1032.54 1031.73 1030.77 1029.91 1028.88 1027.89 1027.68 1026.94 1026.57 1026.46 1026.30 1026.18 1026.10 1026.12 1026.16 1026.28 1026.36 1026.31 1026.14 1025.91 1025.74 1025.68 1025.53 1025.42 1025.35 1025.13 1024.90 1024.83 1024.82 1024.72 1024.57
1037.70 1037.86 1037.21 1037.04 1037.14 1037.02 1036.73 1036.16 1035.61 1035.00 1034.33 1033.54 1032.69 1031.88 1031.08 1030.28 1029.42 1028.59 1027.90 1027.45 1026.94 1026.59 1026.31 1026.22 1026.12 1026.00 1026.04 1026.11 1026.25 1026.32 1026.27 1025.97 1025.75 1025.60 1025.38 1025.26 1025.20 1025.11 1025.02 1024.83 1024.60 1024.37 1024.20 1024.11
1038.10 1038.46 1038.43 1037.90 1037.54 1037.02 1036.46 1035.68 1034.99 1034.32 1033.55 1032.66 1031.87 1031.06 1030.30 1029.52 1028.78 1028.07 1027.35 1026.73 1026.42 1026.28 1025.98 1025.91 1025.83 1025.67 1025.86 1026.01 1026.14 1026.24 1026.15 1025.97 1025.71 1025.40 1025.22 1025.13 1025.09 1024.99 1024.87 1024.70 1024.60 1024.39 1024.16 1023.88
1038.34 1038.38 1038.11 1037.84 1037.24 1036.58 1035.81 1035.27 1034.57 1033.75 1032.88 1032.05 1031.18 1030.40 1029.63 1028.85 1028.06 1027.31 1026.58 1025.98 1025.86 1025.69 1025.27 1025.39 1025.37 1025.28 1025.47 1025.68 1025.82 1025.85 1025.89 1025.54 1025.25 1025.23 1025.15 1024.96 1024.79 1024.67 1024.65 1024.63 1024.53 1024.29 1024.00 1023.72
1038.47 1037.81 1037.51 1037.19 1036.72 1036.08 1035.55 1034.84 1034.18 1033.45 1032.69 1031.89 1030.99 1030.05 1029.00 1028.13 1027.41 1026.64 1026.12 1025.62 1025.39 1025.30 1025.21 1025.07 1024.90 1024.94 1025.07 1025.26 1025.41 1025.26 1025.08 1024.99 1024.78 1024.68 1024.53 1024.42 1024.43 1024.53 1024.56 1024.53 1024.41 1024.23 1023.99 1023.72
1038.29 1037.79 1037.34 1036.86 1036.33 1035.74 1035.22 1034.66 1034.07 1033.40 1032.71 1031.85 1030.93 1029.92 1028.78 1027.93 1027.19 1026.50 1025.96 1025.53 1025.15 1024.82 1024.59 1024.50 1024.51 1024.56 1024.64 1024.76 1024.97 1024.91 1024.79 1024.64 1024.44 1024.27 1024.20 1024.28 1024.37 1024.48 1024.46 1024.39 1024.30 1024.15 1023.93 1023.69
1037.62 1037.34 1037.03 1036.65 1036.16 1035.74 1035.12 1034.53 1034.02 1033.44 1032.69 1031.81 1030.86 1029.80 1028.77 1027.84 1027.16 1026.53 1025.94 1025.42 1024.91 1024.49 1024.15 1024.19 1023.96 1023.63 1023.88 1024.07 1024.27 1024.46 1024.32 1024.24 1024.06 1024.07 1024.07 1024.03 1024.11 1024.17 1024.28 1024.28 1024.18 1024.04 1023.85 1023.67
1037.38 1037.13 1036.85 1036.42 1036.09 1035.63 1035.02 1034.60 1034.13 1033.41 1032.46 1031.53 1030.65 1029.69 1028.73 1027.78 1027.09 1026.48 1025.87 1025.28 1024.90 1024.56 1024.11 1023.73 1023.56 1023.51 1023.44 1023.42 1023.10 1023.42 1023.65 1023.63 1023.63 1023.67 1023.81 1024.03 1024.11 1024.18 1024.23 1024.22 1024.21 1024.16 1024.00 1023.76
1037.41 1037.13 1036.79 1036.46 1035.98 1035.50 1035.04 1034.65 1033.92 1033.12 1032.19 1031.34 1030.55 1029.74 1028.91 1027.92 1027.17 1026.56 1025.92 1025.32 1024.87 1024.26 1023.66 1023.45 1023.34 1023.15 1023.10 1023.04 1022.92 1022.93 1023.03 1023.23 1023.38 1023.49 1023.70 1023.92 1024.11 1024.27 1024.30 1024.30 1024.26 1024.18 1024.02 1023.80
1037.56 1037.21 1036.83 1036.39 1035.97 1035.38 1035.00 1034.35 1033.74 1033.07 1032.20 1031.51 1030.59 1029.95 1029.19 1028.22 1027.41 1026.73 1026.15 1025.84 1024.86 1023.93 1023.75 1023.53 1023.15 1022.90 1022.82 1021.72 1022.58 1022.89 1023.06 1023.28 1023.44 1023.68 1023.96 1024.18 1024.28 1024.31 1024.34 1024.35 1024.35 1024.25 1024.08 1023.85
1037.40 1037.12 1036.73 1036.39 1035.86 1035.47 1034.74 1034.00 1033.57 1032.90 1032.30 1031.67 1030.78 1030.13 1029.46 1028.69 1027.86 1027.32 1026.68 1026.13 1025.40 1024.75 1024.65 1024.15 1023.27 1023.27 1023.44 1023.39 1023.41 1023.45 1023.48 1023.66 1023.90 1024.16 1024.31 1024.40 1024.44 1024.47 1024.46 1024.45 1024.37 1024.25 1024.04 1023.89
1037.26 1037.09 1036.76 1036.10 1035.77 1035.06 1034.39 1033.89 1033.37 1032.68 1032.22 1031.51 1030.88 1030.24 1029.70 1028.94 1028.20 1027.76 1027.53 1026.89 1026.25 1025.67 1025.51 1024.89 1024.25 1024.11 1024.54 1024.58 1024.48 1024.40 1024.35 1024.37 1024.39 1024.41 1024.43 1024.31 1024.40 1024.48 1024.55 1024.52 1024.45 1024.34 1024.13 1023.88
1037.27 1036.84 1036.26 1035.94 1035.56 1034.98 1034.38 1033.92 1033.28 1032.67 1032.07 1031.43 1030.81 1030.31 1029.98 1029.50 1029.06 1028.29 1027.92 1027.46 1027.04 1026.50 1026.40 1026.00 1025.41 1024.96 1025.28 1025.16 1024.98 1024.91 1024.86 1024.77 1024.67 1024.54 1024.39 1024.40 1024.46 1024.47 1024.44 1024.41 1024.38 1024.28 1024.04 1023.74
1037.03 1036.45 1036.00 1035.98 1035.62 1035.10 1034.58 1033.99 1033.45 1032.92 1032.31 1031.84 1031.00 1030.69 1030.26 1029.71 1029.21 1028.52 1028.22 1027.93 1027.74 1027.29 1027.08 1026.77 1026.38 1025.90 1025.72 1025.62 1025.35 1025.35 1025.21 1025.03 1024.81 1024.71 1024.50 1024.43 1024.37 1024.38 1024.39 1024.33 1024.24 1024.09 1023.88 1023.70
1036.67 1036.21 1035.80 1035.73 1035.44 1034.89 1034.69 1034.19 1033.70 1033.22 1032.80 1032.21 1031.32 1031.15 1030.74 1030.20 1029.69 1029.17 1028.73 1028.53 1028.26 1027.96 1027.59 1027.29 1027.00 1026.55 1026.11 1025.83 1025.73 1025.52 1025.28 1025.03 1024.72 1024.47 1024.36 1024.19 1024.19 1024.24 1024.22 1024.15 1024.02 1023.82 1023.68 1023.51
Thickness
5259 5257 5258 5254 5252 5244 5231 5219 5252 5232 5239 5244 5255 5261 5261 5260 5258 5256 5255 5255 5256 5255 5258 5260 5262 5264 5267 5272 5277 5283 5289 5295 5300 5306 5312 5318 5325 5331 5337 5343 5348 5353 5360 5366
5256 5256 5257 5241 5244 5243 5233 5218 5235 5239 5242 5230 5232 5242 5243 5245 5248 5249 5248 5248 5248 5249 5251 5252 5253 5256 5258 5260 5264 5270 5274 5280 5285 5291 5296 5301 5307 5313 5320 5326 5331 5336 5342 5347
5255 5253 5255 5246 5218 5226 5219 5214 5206 5219 5221 5225 5228 5230 5235 5235 5234 5238 5241 5241 5242 5244 5244 5244 5244 5245 5247 5249 5253 5257 5262 5265 5270 5275 5281 5285 5291 5297 5303 5308 5314 5319 5325 5329
5259 5253 5244 5217 5224 5224 5213 5207 5208 5209 5210 5211 5213 5216 5220 5219 5220 5225 5230 5234 5237 5236 5235 5234 5234 5234 5235 5238 5242 5245 5249 5254 5257 5260 5265 5270 5275 5280 5286 5294 5299 5304 5308 5312
5253 5252 5225 5220 5215 5210 5207 5199 5195 5196 5200 5201 5204 5214 5212 5212 5212 5214 5218 5222 5225 5225 5225 5224 5223 5223 5224 5227 5231 5234 5238 5240 5243 5246 5250 5255 5260 5266 5271 5277 5283 5288 5292 5296
5250 5245 5239 5213 5214 5210 5206 5202 5186 5184 5184 5184 5191 5202 5201 5195 5193 5197 5201 5203 5205 5206 5207 5208 5211 5211 5213 5217 5221 5224 5227 5229 5231 5234 5236 5240 5246 5250 5257 5262 5267 5272 5277 5281
5244 5241 5223 5207 5205 5206 5196 5176 5167 5168 5166 5164 5165 5172 5179 5176 5179 5181 5185 5186 5190 5189 5192 5194 5196 5195 5198 5203 5208 5212 5214 5216 5219 5222 5224 5227 5231 5236 5241 5246 5251 5256 5261 5266
5234 5229 5218 5194 5203 5191 5156 5153 5150 5150 5148 5146 5145 5149 5152 5157 5162 5165 5168 5173 5173 5173 5178 5179 5181 5181 5183 5188 5191 5194 5196 5199 5203 5208 5211 5216 5217 5220 5224 5229 5233 5239 5245 5251
5191 5198 5180 5170 5161 5145 5137 5129 5130 5126 5123 5119 5121 5126 5130 5135 5139 5144 5147 5153 5158 5161 5165 5167 5168 5167 5170 5173 5177 5178 5180 5183 5187 5191 5195 5199 5203 5205 5210 5214 5218 5224 5231 5236
5175 5167 5157 5156 5143 5128 5117 5109 5104 5101 5097 5095 5096 5101 5107 5109 5114 5119 5125 5131 5137 5145 5151 5153 5155 5156 5157 5159 5162 5163 5166 5169 5173 5176 5181 5186 5190 5194 5198 5203 5207 5211 5215 5221
5168 5165 5152 5147 5138 5107 5095 5084 5076 5073 5069 5069 5070 5076 5077 5084 5091 5096 5102 5109 5117 5125 5132 5136 5139 5143 5143 5145 5146 5149 5152 5156 5160 5164 5169 5174 5179 5182 5187 5190 5193 5196 5200 5205
5144 5133 5116 5117 5099 5089 5075 5065 5058 5053 5053 5051 5048 5052 5054 5059 5064 5071 5078 5087 5097 5104 5110 5115 5119 5123 5127 5130 5131 5135 5139 5143 5148 5153 5158 5162 5167 5171 5175 5179 5182 5187 5191 5196
5109 5100 5085 5079 5075 5061 5049 5043 5040 5039 5032 5031 5031 5030 5033 5038 5042 5049 5059 5062 5073 5081 5087 5094 5100 5106 5109 5113 5117 5120 5124 5129 5135 5140 5144 5149 5154 5158 5163 5168 5171 5175 5180 5184
5091 5078 5077 5065 5052 5041 5033 5030 5027 5022 5019 5016 5016 5016 5016 5018 5024 5028 5033 5038 5047 5055 5064 5071 5078 5086 5091 5098 5102 5105 5109 5115 5121 5126 5132 5137 5141 5145 5149 5153 5158 5163 5168 5172
5080 5064 5051 5045 5035 5028 5023 5022 5018 5012 5008 5006 5004 5002 5003 5004 5006 5011 5016 5022 5027 5032 5040 5048 5058 5067 5074 5081 5086 5089 5094 5100 5106 5113 5119 5123 5127 5131 5136 5140 5144 5148 5153 5158
5072 5058 5047 5035 5028 5023 5021 5015 5010 5004 5002 4999 4997 4994 4992 4993 4995 4998 5004 5010 5011 5018 5026 5030 5038 5047 5056 5063 5069 5075 5079 5087 5095 5099 5104 5110 5115 5120 5123 5127 5130 5135 5140 5145
5063 5058 5047 5034 5026 5020 5013 5009 5003 4997 4992 4989 4986 4985 4987 4987 4987 4990 4991 4995 4998 5001 5007 5015 5023 5032 5040 5046 5052 5061 5069 5075 5082 5087 5093 5099 5103 5106 5109 5113 5117 5121 5126 5130
5057 5049 5039 5031 5023 5016 5009 5002 4995 4988 4982 4979 4976 4977 4979 4979 4978 4980 4981 4983 4987 4992 4999 5005 5011 5018 5025 5032 5037 5045 5053 5060 5068 5075 5080 5084 5088 5091 5095 5099 5103 5107 5112 5116
5058 5046 5035 5025 5018 5009 5003 4996 4987 4980 4975 4973 4970 4971 4972 4974 4973 4973 4975 4977 4981 4987 4993 4996 5003 5012 5017 5022 5027 5033 5041 5048 5055 5060 5065 5070 5074 5078 5082 5085 5089 5093 5097 5101
5056 5043 5031 5022 5013 5006 4999 4989 4980 4975 4973 4971 4968 4967 4968 4970 4970 4970 4972 4974 4977 4981 4986 4992 4997 5003 5009 5015 5023 5027 5032 5037 5043 5049 5053 5056 5060 5064 5068 5071 5074 5077 5081 5086
5052 5040 5029 5018 5011 5004 4996 4985 4980 4975 4973 4971 4967 4965 4964 4967 4968 4968 4970 4972 4975 4979 4985 4989 4992 4997 5002 5007 5014 5020 5024 5028 5032 5037 5040 5043 5046 5049 5053 5057 5060 5064 5067 5072
5048 5037 5027 5018 5009 5003 4994 4988 4980 4973 4971 4966 4966 4962 4961 4963 4964 4966 4967 4967 4973 4980 4981 4983 4989 4993 4998 5012 5009 5011 5014 5017 5020 5023 5025 5028 5032 5036 5040 5044 5047 5050 5054 5058
5049 5038 5028 5016 5008 5000 4996 4990 4981 4975 4969 4964 4963 4961 4959 4958 4959 4959 4960 4963 4967 4971 4971 4977 4985 4986 4988 4990 4993 4997 5001 5004 5007 5009 5012 5015 5019 5023 5027 5030 5034 5038 5042 5045
5048 5036 5026 5018 5008 5003 4997 4989 4982 4978 4971 4968 4964 4961 4958 4957 4958 4956 4954 4956 4959 4962 4963 4968 4974 4975 4974 4976 4980 4983 4987 4991 4994 4998 5001 5006 5009 5012 5014 5018 5021 5025 5030 5034
5048 5038 5031 5019 5009 5004 4998 4990 4984 4978 4973 4969 4965 4962 4957 4954 4951 4953 4951 4951 4951 4954 4954 4957 4961 4966 4964 4967 4971 4974 4977 4980 4984 4988 4992 4995 4998 5001 5005 5008 5011 5015 5019 5024
5051 5044 5036 5022 5013 5005 4999 4993 4986 4980 4974 4968 4967 4960 4956 4953 4951 4952 4950 4948 4946 4947 4947 4949 4952 4956 4958 4960 4964 4965 4968 4972 4976 4979 4983 4987 4990 4992 4995 4998 5001 5005 5010 5014
5056 5048 5039 5026 5016 5009 5000 4995 4988 4981 4974 4968 4967 4959 4954 4951 4949 4948 4947 4944 4943 4943 4944 4944 4946 4949 4953 4956 4957 4960 4963 4967 4971 4975 4978 4982 4984 4986 4989 4992 4995 4999 5003 5007